Wind_Speed
15 14 13 14 14 14 13 12 11 9 8 8 8 7 6 5 6 7 9 10 12 13 15 16 17 18 19 19 20 21 21 22 22 23 23 23 23 23 23 23 23 23 23 22
15 14 14 15 15 15 14 13 11 10 9 9 8 7 6 6 7 9 10 11 12 14 15 16 17 18 19 20 20 21 22 22 23 23 23 23 23 23 23 23 23 23 23 22
15 15 13 13 14 15 14 13 12 10 10 10 9 8 7 8 9 10 11 12 13 14 15 16 17 18 19 20 21 22 23 23 23 23 23 23 23 23 23 23 23 23 23 22
15 15 14 12 15 15 15 14 13 11 11 10 10 9 10 10 11 12 12 13 14 15 16 17 18 19 20 21 22 22 23 24 24 24 24 23 23 23 23 23 23 23 23 22
16 15 13 14 14 15 15 14 14 13 13 12 11 12 12 12 12 13 14 14 15 16 17 18 19 20 21 22 23 24 24 25 25 24 24 24 23 23 23 23 23 23 23 22
16 16 14 14 16 17 16 15 15 15 15 14 13 14 14 14 14 15 15 16 16 17 18 19 20 21 23 24 25 25 25 26 26 25 24 24 23 23 23 23 23 22 22 22
17 17 15 15 16 17 17 16 16 16 16 16 15 16 16 16 17 17 17 17 18 18 19 20 22 23 24 25 26 26 26 26 26 26 25 24 23 23 23 23 23 22 22 22
19 18 15 17 17 18 18 18 18 18 17 17 17 17 17 18 18 18 19 19 19 19 20 21 23 24 25 26 27 27 27 27 27 26 26 25 24 24 23 23 23 23 22 22
21 20 19 20 19 19 19 19 19 19 19 19 19 19 19 19 19 20 20 20 20 21 21 22 24 25 26 27 28 28 28 28 27 27 26 26 25 25 24 24 23 23 23 23
23 21 21 21 21 21 21 21 21 21 20 20 20 20 20 20 21 21 21 21 21 22 23 24 25 26 27 28 29 29 29 29 28 27 27 27 26 25 25 24 24 23 23 23
25 23 23 23 23 23 23 22 22 22 22 22 22 22 22 22 22 22 22 22 23 23 24 26 27 28 29 30 30 31 30 30 29 28 28 27 27 26 26 25 24 23 23 23
27 26 26 25 25 25 24 24 24 24 23 23 23 23 23 23 23 23 23 24 24 25 26 27 28 29 30 31 32 32 31 31 30 30 29 28 28 27 26 26 25 25 24 24
31 30 30 28 27 26 26 26 26 26 25 25 24 24 24 24 24 24 25 26 26 27 28 29 30 31 32 33 33 33 33 32 31 30 30 28 28 28 28 28 27 26 26 26
35 34 33 31 30 29 29 28 28 28 27 27 26 26 26 26 26 26 27 28 28 29 30 31 32 33 34 34 34 34 33 33 32 31 30 29 29 28 28 29 29 29 29 29
38 38 37 36 34 33 32 31 31 30 29 29 29 28 28 29 29 29 30 30 30 31 32 33 34 35 35 36 35 35 34 33 32 32 31 31 31 30 30 29 30 30 31 31
42 42 42 40 39 37 36 35 34 34 33 32 32 32 32 32 32 32 33 33 33 34 35 35 36 36 37 37 37 36 35 34 33 33 33 32 32 32 31 31 31 31 32 32
45 44 44 43 42 41 40 39 39 38 37 36 36 36 36 35 36 36 36 36 36 37 37 38 38 38 39 39 38 37 36 35 34 34 34 34 34 33 33 33 33 33 34 34
46 45 45 45 44 44 43 43 42 41 41 40 40 40 39 39 39 39 39 39 39 40 40 40 40 40 40 40 39 38 37 36 35 35 35 35 35 34 34 35 35 36 36 37
47 47 46 46 46 46 46 45 45 44 44 44 43 43 43 43 42 42 42 42 42 43 43 43 42 42 41 41 40 39 38 37 37 37 37 36 36 36 36 36 37 38 38 39
47 47 47 47 47 47 47 47 47 46 46 46 46 46 45 45 45 45 45 45 45 45 45 45 44 43 43 42 41 40 39 38 38 38 38 37 37 37 38 38 39 40 41 41
45 46 47 47 48 48 48 48 48 48 47 47 47 47 47 47 47 47 47 47 46 46 46 46 45 44 44 43 42 41 40 40 39 39 39 38 38 39 40 40 41 41 43 44
45 45 46 47 48 48 48 49 48 48 48 47 47 47 47 48 48 48 48 48 48 48 47 47 46 45 44 43 42 41 41 40 40 40 39 39 40 40 41 41 42 43 45 46
43 44 45 46 47 47 48 48 49 49 48 48 47 47 48 48 47 47 48 48 48 48 47 46 45 44 44 43 42 41 41 40 40 40 40 40 40 41 42 43 44 45 47 48
42 42 43 45 46 47 47 48 48 48 48 48 48 48 47 47 47 47 47 47 46 46 46 45 45 44 43 42 42 41 41 40 40 40 40 40 41 42 43 44 46 48 49 50
42 42 42 42 43 45 45 46 47 47 47 47 47 47 46 46 46 46 46 46 45 45 45 44 43 43 42 41 41 40 39 39 39 39 39 40 42 43 45 46 48 49 51 52
41 42 42 42 43 43 43 44 44 45 45 45 45 45 45 45 45 45 44 44 44 43 43 43 42 41 40 39 39 38 38 38 39 39 40 41 43 44 46 48 49 51 52 54
40 40 41 41 41 41 42 43 43 43 44 44 45 44 44 44 44 44 43 43 42 42 41 41 40 39 38 38 37 37 38 38 39 39 40 42 43 45 47 48 50 51 53 55
Wind_Direction
244 245 240 227 219 217 218 218 216 205 203 208 219 231 248 271 294 309 317 323 328 333 337 340 341 342 343 345 345 346 346 347 348 349 350 350 351 352 353 353 353 353 353 354
244 245 237 225 220 220 219 218 215 209 207 217 225 237 254 275 293 303 310 316 323 328 332 335 337 338 339 340 342 342 343 344 345 345 345 346 347 349 349 350 351 351 352 352
239 240 233 222 218 219 221 221 220 218 219 226 234 247 263 279 290 297 304 311 318 323 328 331 334 336 337 337 339 340 342 342 341 341 342 342 344 345 347 348 349 349 349 351
236 238 232 219 219 220 222 223 226 227 232 238 244 256 267 277 286 292 299 306 313 318 323 327 331 333 334 335 336 337 338 338 338 338 338 339 340 342 344 345 346 348 349 349
238 239 228 225 227 227 226 227 232 234 238 244 250 260 267 274 282 289 296 302 308 314 319 323 327 330 332 333 334 334 333 334 335 335 335 335 336 337 339 340 342 344 346 347
239 240 229 224 229 231 232 233 237 240 244 249 255 262 268 275 282 288 293 298 303 309 314 319 323 326 328 329 330 331 330 330 330 331 331 331 332 333 335 336 338 340 342 344
244 243 234 230 233 236 238 238 242 246 249 253 257 262 269 275 281 285 288 293 299 305 310 316 320 323 326 327 327 328 328 327 327 327 327 328 328 329 330 332 333 336 338 340
246 245 241 238 238 240 243 245 248 250 254 257 260 264 269 274 279 282 286 290 296 301 307 312 316 319 322 324 324 325 325 325 325 325 325 325 325 326 326 327 329 331 332 334
248 248 247 246 246 246 246 248 250 253 256 259 262 266 270 273 277 281 284 289 294 298 303 308 312 316 318 320 321 321 322 322 322 323 323 323 322 322 322 323 324 325 327 328
248 249 250 251 251 251 250 251 253 255 257 260 263 266 270 273 277 280 283 287 291 295 300 304 308 312 315 317 318 318 318 319 319 319 320 320 319 318 318 318 319 320 322 324
249 250 250 251 253 253 254 255 257 258 259 262 265 267 270 273 276 279 282 285 289 293 296 300 304 308 312 314 315 316 316 316 315 315 315 315 315 315 315 316 316 316 317 318
252 251 251 251 253 255 257 258 259 260 261 263 265 268 270 272 274 277 281 284 287 291 294 297 301 305 308 311 312 313 313 313 312 312 312 312 312 312 312 313 313 313 313 314
251 251 253 253 254 255 257 258 260 261 262 264 265 267 268 270 273 276 279 282 286 289 293 296 299 303 306 308 310 310 311 311 310 309 309 309 309 310 310 311 311 311 311 312
251 252 252 253 254 255 256 257 259 260 261 263 264 265 267 269 272 275 278 281 285 288 291 295 298 301 304 306 307 309 309 308 308 307 307 306 306 307 307 307 307 308 308 309
250 251 252 252 252 253 255 256 258 259 259 260 262 264 266 269 271 274 278 281 284 287 290 293 297 299 302 304 305 306 307 306 305 305 305 304 304 304 303 302 302 303 305 305
248 249 250 251 252 253 254 255 256 258 259 260 262 264 266 268 271 274 277 280 283 286 289 292 295 297 300 302 303 304 304 303 303 303 303 303 302 302 302 301 301 301 302 303
248 249 250 251 251 252 253 254 255 257 259 260 262 264 266 268 271 273 276 279 282 285 288 291 293 296 298 299 300 301 301 301 301 301 301 301 301 300 300 300 300 300 301 301
249 249 249 250 251 251 252 253 255 256 258 260 261 264 266 268 270 273 276 278 281 284 287 290 292 294 296 297 298 299 299 299 299 300 300 299 299 299 298 299 299 300 300 301
249 248 249 249 250 251 252 253 254 255 257 259 261 263 265 267 270 273 275 278 281 283 286 289 291 293 294 295 296 296 296 297 298 299 298 298 297 297 298 298 299 299 300 301
248 248 248 248 249 249 251 252 253 255 256 258 260 262 264 267 269 272 274 277 280 283 285 288 290 291 292 293 293 294 294 295 296 297 296 296 296 296 297 298 298 299 300 301
247 246 246 246 247 249 250 251 253 254 256 257 259 262 264 266 268 271 274 276 279 281 284 286 288 289 291 291 291 291 292 293 294 295 295 294 295 296 297 298 298 299 300 301
245 245 246 246 246 247 249 250 252 254 255 257 259 261 263 266 268 270 272 275 277 280 282 284 286 287 289 289 289 289 290 291 292 293 293 293 294 295 297 298 299 300 301 301
246 245 245 245 245 246 247 249 251 253 255 257 259 260 262 265 267 270 272 274 276 278 280 282 284 285 286 287 287 288 289 289 290 291 292 293 294 295 297 298 300 301 301 302
247 246 246 246 246 246 247 249 251 252 254 256 258 260 262 264 266 268 270 273 275 277 279 280 282 283 284 285 286 286 287 288 289 290 291 292 294 296 298 299 301 302 303 303
247 247 246 246 246 247 248 249 251 252 254 256 258 259 261 263 265 267 269 272 274 275 277 279 280 282 283 284 284 285 286 287 288 290 291 293 294 297 299 300 302 303 304 305
247 247 247 247 248 248 248 250 251 252 254 255 256 258 260 262 264 266 268 270 272 274 275 277 279 280 281 281 282 284 285 287 288 290 291 294 296 298 300 302 303 305 306 307
249 249 248 249 249 249 249 250 252 252 253 254 255 257 259 261 263 265 266 268 270 272 274 275 277 278 278 280 281 283 285 287 289 290 293 295 298 300 302 303 305 306 307 309
Height
5831 5832 5833 5834 5835 5836 5837 5839 5840 5843 5844 5846 5846 5846 5847 5846 5846 5845 5844 5842 5840 5838 5835 5832 5829 5825 5822 5818 5815 5811 5807 5803 5799 5795 5790 5786 5782 5777 5773 5768 5763 5759 5754 5750
5828 5829 5830 5831 5833 5834 5835 5837 5838 5840 5842 5843 5844 5844 5844 5844 5843 5842 5841 5840 5838 5835 5833 5830 5827 5824 5820 5817 5813 5809 5805 5801 5797 5793 5789 5785 5780 5776 5771 5767 5762 5757 5753 5748
5826 5826 5827 5829 5831 5832 5833 5835 5836 5837 5840 5840 5841 5841 5841 5841 5840 5840 5839 5837 5835 5833 5830 5828 5824 5821 5818 5814 5811 5807 5803 5799 5795 5791 5787 5782 5778 5774 5770 5765 5761 5756 5751 5747
5823 5825 5825 5830 5828 5829 5830 5832 5833 5835 5836 5837 5838 5838 5838 5838 5837 5837 5835 5834 5832 5830 5827 5825 5822 5818 5815 5811 5808 5804 5800 5796 5792 5788 5784 5780 5776 5772 5768 5763 5759 5754 5750 5745
5821 5821 5823 5826 5826 5827 5828 5830 5831 5832 5833 5833 5834 5834 5834 5834 5834 5833 5832 5830 5829 5826 5824 5821 5818 5815 5812 5808 5805 5801 5797 5793 5789 5785 5781 5777 5773 5769 5765 5761 5757 5753 5748 5744
5817 5818 5820 5824 5823 5823 5826 5827 5827 5828 5829 5830 5830 5831 5831 5830 5829 5829 5828 5826 5825 5823 5820 5818 5815 5811 5808 5804 5801 5797 5793 5789 5785 5782 5778 5774 5770 5766 5763 5759 5755 5751 5747 5742
5813 5814 5816 5819 5819 5820 5823 5824 5823 5824 5824 5825 5826 5826 5826 5825 5825 5824 5823 5822 5820 5818 5816 5813 5810 5807 5804 5800 5797 5793 5789 5785 5781 5778 5774 5770 5767 5763 5759 5756 5752 5748 5744 5740
5809 5810 5815 5814 5815 5816 5817 5818 5818 5819 5819 5820 5821 5821 5821 5820 5820 5819 5818 5817 5815 5813 5811 5809 5806 5803 5800 5796 5793 5789 5785 5781 5777 5773 5769 5766 5762 5759 5755 5752 5749 5745 5741 5738
5805 5808 5808 5808 5809 5810 5811 5812 5813 5814 5814 5815 5815 5815 5815 5815 5814 5813 5812 5811 5810 5808 5806 5803 5801 5798 5795 5792 5788 5784 5780 5776 5772 5768 5765 5761 5758 5754 5751 5748 5745 5741 5738 5735
5799 5801 5802 5802 5803 5804 5805 5806 5807 5808 5808 5809 5809 5809 5809 5808 5808 5807 5806 5805 5804 5802 5800 5798 5795 5793 5790 5786 5783 5779 5775 5771 5767 5764 5760 5756 5753 5749 5746 5743 5740 5737 5734 5731
5791 5793 5794 5796 5796 5797 5798 5799 5800 5800 5801 5801 5802 5802 5802 5801 5801 5800 5799 5798 5797 5796 5794 5792 5789 5787 5784 5780 5777 5773 5769 5766 5762 5758 5755 5751 5747 5744 5741 5738 5735 5732 5729 5726
5783 5785 5786 5787 5788 5789 5790 5791 5792 5793 5793 5794 5794 5794 5794 5794 5794 5793 5793 5792 5790 5789 5787 5785 5783 5780 5777 5774 5770 5766 5763 5759 5755 5752 5748 5745 5741 5738 5735 5732 5729 5726 5723 5720
5774 5776 5776 5778 5779 5781 5781 5783 5783 5784 5785 5786 5786 5786 5786 5786 5786 5786 5785 5784 5783 5781 5780 5777 5775 5772 5769 5766 5763 5759 5756 5752 5748 5745 5742 5739 5735 5732 5728 5725 5722 5719 5716 5713
5763 5765 5766 5769 5770 5771 5772 5773 5774 5775 5776 5777 5777 5778 5778 5778 5778 5777 5777 5776 5775 5773 5771 5769 5767 5764 5761 5758 5755 5751 5748 5744 5741 5738 5734 5731 5729 5726 5722 5719 5715 5712 5709 5706
5752 5753 5755 5757 5759 5761 5762 5763 5764 5766 5767 5768 5768 5768 5769 5769 5769 5768 5768 5767 5766 5764 5763 5760 5758 5755 5752 5749 5746 5743 5739 5736 5733 5730 5727 5724 5721 5718 5715 5712 5709 5705 5702 5699
5739 5741 5743 5745 5748 5750 5751 5753 5754 5755 5756 5757 5758 5759 5759 5759 5759 5758 5758 5757 5756 5755 5753 5751 5749 5746 5743 5740 5737 5734 5731 5727 5724 5721 5718 5715 5712 5709 5706 5703 5700 5697 5694 5691
5725 5728 5730 5733 5735 5737 5739 5741 5742 5744 5745 5746 5747 5747 5748 5748 5748 5748 5747 5747 5746 5744 5743 5741 5738 5736 5733 5730 5727 5724 5721 5718 5715 5712 5709 5706 5703 5700 5697 5694 5691 5688 5684 5681
5710 5713 5716 5719 5721 5723 5725 5727 5729 5731 5732 5733 5734 5735 5736 5736 5736 5736 5736 5735 5734 5733 5731 5730 5728 5725 5722 5720 5717 5714 5711 5708 5705 5702 5699 5696 5693 5690 5687 5684 5681 5677 5674 5670
5694 5698 5701 5704 5706 5709 5711 5713 5715 5717 5719 5720 5721 5722 5723 5724 5724 5724 5724 5723 5722 5721 5720 5718 5716 5713 5711 5708 5706 5703 5700 5697 5695 5692 5689 5685 5682 5679 5676 5673 5670 5666 5662 5658
5678 5682 5685 5688 5691 5694 5696 5699 5701 5703 5705 5706 5707 5708 5709 5710 5710 5711 5711 5710 5709 5708 5707 5705 5703 5701 5699 5697 5694 5691 5689 5686 5684 5681 5678 5674 5671 5668 5665 5661 5658 5654 5650 5646
5662 5665 5669 5672 5675 5678 5680 5683 5685 5688 5690 5691 5693 5694 5695 5696 5697 5697 5697 5696 5696 5695 5694 5692 5690 5688 5686 5684 5682 5679 5677 5675 5672 5669 5666 5663 5660 5656 5653 5649 5645 5641 5637 5633
5646 5649 5653 5656 5659 5662 5665 5667 5670 5672 5674 5676 5678 5679 5681 5682 5682 5683 5683 5682 5682 5681 5680 5678 5677 5675 5673 5671 5669 5667 5665 5662 5660 5657 5654 5651 5648 5644 5640 5637 5633 5628 5623 5619
5630 5633 5637 5640 5643 5646 5649 5651 5654 5656 5659 5661 5663 5664 5666 5667 5667 5668 5668 5668 5667 5666 5665 5664 5663 5661 5660 5658 5656 5654 5652 5649 5647 5644 5641 5638 5635 5632 5628 5624 5619 5615 5609 5604
5615 5618 5621 5624 5627 5630 5633 5635 5638 5641 5643 5646 5648 5649 5650 5652 5652 5653 5653 5653 5652 5652 5651 5650 5649 5648 5646 5644 5643 5641 5639 5636 5634 5631 5629 5626 5622 5619 5615 5610 5605 5600 5595 5589
5600 5603 5606 5609 5612 5615 5617 5620 5622 5625 5627 5630 5632 5634 5635 5636 5637 5638 5638 5638 5638 5638 5637 5636 5635 5634 5633 5631 5630 5628 5626 5624 5621 5619 5616 5613 5609 5606 5601 5596 5591 5586 5579 5573
5586 5589 5592 5594 5597 5600 5602 5605 5607 5610 5612 5615 5617 5619 5620 5622 5623 5623 5624 5624 5624 5624 5623 5623 5622 5621 5620 5618 5617 5615 5613 5611 5609 5606 5603 5600 5597 5592 5588 5583 5577 5571 5564 5557
5571 5574 5577 5580 5582 5585 5587 5590 5593 5595 5597 5600 5602 5604 5606 5607 5608 5609 5610 5610 5610 5610 5610 5609 5609 5608 5607 5606 5605 5603 5601 5599 5597 5594 5591 5588 5584 5579 5574 5569 5563 5556 5549 5542